User: anonymous   Login
Location: Unspecified
(0.0000°N, 0.0000°E)
Time: 00:05:54
(UTC+00:00)
Language:

TBA - TO BE ASSIGNED - Orbit

View from above orbital plane
View from above orbital plane
View from above satellite
View from above satellite

Ground track
Ground track

The orbit is defined by the following mean orbital elements,

1 68515U          26145.26966672 +.00000000 +00000-0 +61682-3 0 00006
2 68515  53.1585 132.5714 0001142 129.6744 230.4359 15.34407154    08
Epoch (UTC): 25 May 2026 06:28:19
Eccentricity: 0.0001142
inclination: 53.1585°
perigee height: 462 km
apogee height: 463 km
right ascension of ascending node: 132.5714°
argument of perigee: 129.6744°
revolutions per day: 15.34407154
mean anomaly at epoch: 230.4359°

The dashed part of the orbit path shows where the satellite is in the earth's shadow,  

DLR